Flag for Germany Weather past 2 weeks in Rottenburg am Neckar, Baden-Württemberg, Germany

Now
45 °F

Overcast.


Feels Like: 42 °F
Forecast: 42 / 52 °F
Wind: 6 mph from Southwest

Location: Stuttgart-Echterdingen

Current Time: Mar 30, 2015 at 8:40:25 AM

Latest Report: Mar 30, 2015 at 8:00 AM


Visibility: 19 mi

Pressure: 29.62 "Hg

Humidity: 86%

Dew point: 41 °F

Location of Rottenburg am NeckarLocation

Historic Weather in Rottenburg am Neckar — Graph

°F

Rottenburg am Neckar temperature yesterday

Maximum temperature yesterday: 52 °F (at 12:00 PM)
Minimum temperature yesterday: 47 °F (at 12:00 AM)
Average temperature yesterday: 50 °F

Past Weeks' High & Low Weather Summary

 TemperatureHumidityPressure
High65 °F (Mar 17, 3:00 PM)97% (Mar 24, 6:00 AM)30.30 "Hg (Mar 24, 6:00 AM)
Low30 °F (Mar 24, 7:00 AM)29% (Mar 17, 4:00 PM)29.56 "Hg (Mar 25, 3:00 PM)
Average46 °F68%30.04 "Hg
* Reported Mar 15 6:00 AM — Mar 30 7:00 AM, Rottenburg am Neckar, Weather by CustomWeather, © 2015

Note: Actual official high and low records may vary slightly from our data, if they occured in-between our weather recording intervals... More about our weather records

Advertising

Rottenburg am Neckar weather history for previous 24 hours

 ConditionsComfort  
Time TempWeatherWind HumidityBarometerVisibility
7:00 AM
Mon, Mar 30
46 °FLight rain. Overcast.7 mph85%29.59 "Hg16 mi
6:00 AM46 °FLight rain. Overcast.7 mph84%29.58 "Hg12 mi
4:00 AM46 °FLight rain. Overcast.6 mph89%29.59 "Hg12 mi
3:00 AM47 °FLight rain. Overcast.10 mph82%29.59 "Hg16 mi
2:00 AM49 °FLight rain. Overcast.6 mph84%29.57 "Hg9 mi
1:00 AM49 °FSprinkles. Overcast.7 mph90%29.58 "Hg6 mi
12:00 AM50 °FSprinkles. Overcast.7 mph83%29.58 "Hg16 mi
10:00 PM
Sun, Mar 29
50 °FLight rain. Overcast.8 mph87%29.61 "Hg16 mi
9:00 PM50 °FLight rain. Overcast.8 mph84%29.63 "Hg16 mi
8:00 PM51 °FLight rain. Overcast.9 mph79%29.62 "Hg19 mi
7:00 PM52 °FLight rain. Overcast.7 mph71%29.65 "Hg43 mi
6:00 PM52 °FOvercast.9 mph71%29.67 "Hg43 mi
4:00 PM52 °FLight rain. Overcast.10 mph71%29.73 "Hg37 mi
3:00 PM51 °FLight rain. Overcast.10 mph69%29.77 "Hg37 mi
2:00 PM51 °FOvercast.10 mph67%29.78 "Hg43 mi
1:00 PM52 °FOvercast.9 mph65%29.80 "Hg43 mi
12:00 PM52 °FOvercast.10 mph64%29.81 "Hg43 mi
11:00 AM52 °FOvercast.7 mph70%29.84 "Hg43 mi
10:00 AM52 °FOvercast.8 mph73%29.86 "Hg37 mi
9:00 AM50 °FOvercast.7 mph77%29.89 "Hg37 mi
8:00 AM50 °FOvercast.6 mph78%29.90 "Hg37 mi
Weather by CustomWeather, © 2015

See weather overviewHow to use our weather pages